{"data":{"norad_id":65152,"intl_designator":"2025-171W","name":"KUIPER-00115","alt_names":[],"object_type":"PAYLOAD","status":"ACTIVE","operator":null,"country":"US","launch_date":"2025-08-11","launch_site_code":"AFETR","launch_vehicle":null,"mission":null,"orbit_class":"UNKNOWN","rcs_meters":null,"size_class":null,"mass_kg":null,"dimensions":null,"purposes":[],"wikipedia_slug":null,"has_3d_model":false,"image_url":null,"decayed_at":null,"tle_current":{"epoch":"2026-09-21T15:19:02.309952Z","epoch_age_seconds":66705,"freshness":"FRESH","line1":"1 65152U 25171W   26264.63822118  .00002133  00000+0  30868-3 0  9992","line2":"2 65152  51.9015  21.6151 0000463 110.6931 249.4081 14.79932329 61769","mean_motion":14.79932329,"eccentricity":4.63e-5,"inclination_deg":51.9015,"raan_deg":21.6151,"arg_perigee_deg":110.6931,"mean_anomaly_deg":249.4081,"bstar":0.00030868,"rev_number":6176,"period_min":97.301746288157,"perigee_km":629.21329201572,"apogee_km":629.86220269732,"semimajor_km":7007.6747473565,"source":"CELESTRAK","updated_at":"2026-09-22T09:00:30.157393Z"}}}